Location: McFarlands Corners
(41.4117°N, 81.3382°W)
Time: 13:28:32
(UTC+00:00)

Tiros 1 despin weight - Pass Details

Date: 10 November 2024
Orbit: 570 x 610 km, 48.2° (Epoch: 01 December)

Event Time Altitude Azimuth Distance (km) Brightness Sun altitude
Exits shadow 10:18:15 28° 208° (SSW) 1,118 ? -20.8°
Maximum altitude 10:20:17 53° 145° (SE) 729 ? -20.4°
Drops below altitude 10° 10:24:34 10° 68° (ENE) 1,915 ? -19.6°
Sets 10:26:52 0° 64° (ENE) 2,811 ? -19.2°
